Location: Gulgong NSW 2852, Australia
(32.2976°S, 149.5548°E)
Time: 23:57:33
(UTC+11:00)

N. Korean satellite - Visible Passes

Search period start: 04 December 2021 00:00
Search period end: 14 December 2021 00:00
Orbit: 447 x 495 km, 97.3° (Epoch: 03 December)

Date Brightness Start Highest point End Pass type
(mag) Time Alt. Az. Time Alt. Az. Time Alt. Az.
04 Dec 8.2 05:13:26 10° NE 05:16:41 39° ESE 05:20:02 10° S visible
05 Dec 9.7 04:46:08 10° ENE 04:48:23 16° ESE 04:50:39 10° SSE visible
08 Dec 9.5 04:53:14 10° ENE 04:55:54 20° ESE 04:58:37 10° SSE visible
11 Dec 9.1 05:00:21 10° NE 05:03:21 26° ESE 05:06:24 10° SSE visible
12 Dec 10.1 04:33:55 10° E 04:35:01 11° ESE 04:36:08 10° SE visible
